This is the latest recevied weather packets stored in our database for station/object OE6PLD-13. If no packets are shown the sender has not sent any weather packets the latest 10 day(s).
| Time | Temp. | Humidity | Pressure | Rain* | Wind** | Luminosity | Snow |
|---|---|---|---|---|---|---|---|
| 1777821791 | 25.56° C | 36% | 1010.9 hPa | 0.76 mm | - | 215 W/m² | - |
| 1777821607 | 25.56° C | 35% | 1011.2 hPa | 0.76 mm | - | 222 W/m² | - |
| 1777821424 | 26.11° C | 36% | 1011.1 hPa | 0.76 mm | - | 220 W/m² | - |
| 1777821241 | 25.56° C | 35% | 1011.1 hPa | 0.76 mm | - | 235 W/m² | - |
| 1777821057 | 25.56° C | 36% | 1011.2 hPa | 0.76 mm | - | 263 W/m² | - |
| 1777820874 | 25.56° C | 36% | 1011.2 hPa | 0.76 mm | - | 253 W/m² | - |
| 1777820691 | 26.11° C | 35% | 1011.2 hPa | 0.76 mm | - | 255 W/m² | - |
| 1777820507 | 26.11° C | 35% | 1011.2 hPa | 0.76 mm | - | 256 W/m² | - |
| 1777820324 | 26.67° C | 35% | 1011.2 hPa | 0.76 mm | - | 273 W/m² | - |
| 1777820141 | 26.67° C | 35% | 1011.1 hPa | 0.76 mm | - | 291 W/m² | - |
| 1777819957 | 26.67° C | 35% | 1011 hPa | 0.76 mm | - | 302 W/m² | - |
| 1777819774 | 26.11° C | 36% | 1011.4 hPa | 0.76 mm | - | 293 W/m² | - |
| 1777819591 | 25.56° C | 36% | 1011.4 hPa | 0.76 mm | - | 304 W/m² | - |
| 1777819407 | 26.11° C | 36% | 1011.3 hPa | 0.76 mm | - | 323 W/m² | - |
| 1777819224 | 26.67° C | 35% | 1011.5 hPa | 0.76 mm | - | 353 W/m² | - |
| 1777819041 | 26.67° C | 35% | 1011.4 hPa | 0.76 mm | - | 361 W/m² | - |
| 1777818857 | 26.67° C | 35% | 1011.5 hPa | 0.76 mm | - | 357 W/m² | - |
| 1777818674 | 26.11° C | 35% | 1011.6 hPa | 0.76 mm | - | 359 W/m² | - |
| 1777818490 | 26.67° C | 35% | 1011.5 hPa | 0.76 mm | - | 365 W/m² | - |
| 1777818307 | 26.11° C | 35% | 1011.8 hPa | 0.76 mm | - | 360 W/m² | - |
| 1777818124 | 26.11° C | 35% | 1011.5 hPa | 0.76 mm | - | 354 W/m² | - |
| 1777817940 | 26.11° C | 36% | 1011.7 hPa | 0.76 mm | - | 385 W/m² | - |
| 1777817757 | 26.67° C | 34% | 1011.8 hPa | 0.76 mm | - | 382 W/m² | - |
| 1777817574 | 25.56° C | 36% | 1011.9 hPa | 0.76 mm | - | 372 W/m² | - |
| 1777817390 | 25.56° C | 36% | 1011.7 hPa | 0.76 mm | - | 385 W/m² | - |
* Rain latest hour (hover to see other rain measurements)
** Current wind speed in m/s (hover to see current wind gust speed)